Location: Mahannah Oil Field
(37.4664°N, 96.6003°W)
Time: 07:01:55
(UTC+00:00)

ISS - Visible Passes

Search period start: 26 November 2020 00:00
Search period end: 06 December 2020 00:00
Orbit: 418 x 421 km, 51.6° (Epoch: 26 November)

Date Brightness Start Highest point End Pass type
(mag) Time Alt. Az. Time Alt. Az. Time Alt. Az.
26 Nov -1.3 00:08:33 10° NW 00:10:25 14° NNW 00:12:18 10° NNE visible
04 Dec -1.5 00:18:32 10° N 00:19:55 12° NNE 00:19:55 12° NNE visible
05 Dec -1.3 01:06:42 10° NW 01:07:31 15° NNW 01:07:31 15° NNW visible
